Weather History for EFMA - February, 2013

Change the Weather History Date:

Wednesday, February 20, 2013

  Actual Average Record
Temperature  
Mean Temperature 26 °F -  
Max Temperature 28 °F - - ()
Min Temperature 23 °F - - ()
Degree Days  
Heating Degree Days 40    
Moisture  
Dew Point 22 °F    
Average Humidity 83    
Maximum Humidity 93    
Minimum Humidity 74    
Precipitation  
Precipitation 0.00 in - - ()
Sea Level Pressure  
Sea Level Pressure 30.40 in    
Wind  
Wind Speed 6 mph ()    
Max Wind Speed 14 mph    
Max Gust Speed -    
Visibility 6.2 miles    
Events Snow    
T = Trace of Precipitation, MM = Missing Value Source: Averaged Metar Reports

Daily Weather History Graph

Daily Weather History Graph

Search for Another Location

Airport or City:

Trip Planner

Search our weather history database for the weather conditions in past years. The results will help you decide how hot, cold, wet, or windy it might be!

Date:

Astronomy

Feb. 20, 2013 Rise Set
Actual Time 8:04 AM EET 5:44 PM EET
Civil Twilight 7:21 AM EET 6:27 PM EET
Nautical Twilight 6:33 AM EET 7:16 PM EET
Astronomical Twilight 5:44 AM EET 8:04 PM EET
Moon 11:57 AM EET (2/20) 5:03 AM EET (2/20)
Length of Visible Light 11h 05m
Length of Day
9h 39m
Waxing Gibbous, 73% of the Moon is Illuminated
Feb 20
Waxing Gibbous
Feb 25
Full
Mar 4
Last Quarter
Mar 11
New
Mar 19
First Quarter

Hourly Weather History & Observations

Time (EET) Temp. Windchill Dew Point Humidity Pressure Visibility Wind Dir Wind Speed Gust Speed Precip Events Conditions
12:20 AM 24.8 °F 17.9 °F 19.4 °F 80% 30.33 in 6.2 mi NNE 5.8 mph - N/A   Mostly Cloudy
12:50 AM 26.6 °F 21.2 °F 19.4 °F 74% 30.33 in 6.2 mi North 4.6 mph - N/A   Overcast
1:20 AM 26.6 °F 20.0 °F 19.4 °F 74% 30.33 in 6.2 mi North 5.8 mph - N/A   Overcast
2:20 AM 26.6 °F 22.6 °F 21.2 °F 80% 30.33 in 6.2 mi North 3.5 mph - N/A   Overcast
2:50 AM 26.6 °F 22.6 °F 21.2 °F 80% 30.36 in 6.2 mi North 3.5 mph - N/A   Overcast
3:20 AM 28.4 °F 22.2 °F 21.2 °F 74% 30.36 in 6.2 mi NNE 5.8 mph - N/A Snow Light Snow
3:50 AM 26.6 °F 20.0 °F 21.2 °F 80% 30.36 in 6.2 mi ENE 5.8 mph - N/A Snow Light Snow Grains
4:20 AM 26.6 °F 22.6 °F 21.2 °F 80% 30.36 in 6.2 mi NE 3.5 mph - N/A Snow Light Snow
4:50 AM 26.6 °F 21.2 °F 21.2 °F 80% 30.36 in 6.2 mi NE 4.6 mph - N/A Snow Light Snow
5:20 AM 26.6 °F 20.0 °F 21.2 °F 80% 30.39 in 6.2 mi NE 5.8 mph - N/A Snow Light Snow
5:50 AM 26.6 °F 21.2 °F 21.2 °F 80% 30.39 in 6.2 mi NE 4.6 mph - N/A Snow Light Snow Grains
6:06 AM 26.6 °F 21.2 °F 21.2 °F 80% 30.39 in 6.2 mi NNE 4.6 mph - N/A   Mostly Cloudy
6:20 AM 26.6 °F 22.6 °F 21.2 °F 80% 30.39 in 6.2 mi NNE 3.5 mph - N/A   Mostly Cloudy
7:20 AM 26.6 °F - 23.0 °F 86% 30.39 in 6.2 mi North 2.3 mph - N/A   Mostly Cloudy
7:50 AM 26.6 °F - 23.0 °F 86% 30.39 in 6.2 mi Calm Calm - N/A   Overcast
8:20 AM 26.6 °F - 23.0 °F 86% 30.39 in 6.2 mi North 1.2 mph - N/A   Overcast
8:50 AM 26.6 °F 19.1 °F 23.0 °F 86% 30.39 in 6.2 mi North 6.9 mph - N/A   Overcast
9:20 AM 28.4 °F 19.1 °F 21.2 °F 74% 30.42 in 6.2 mi NNE 10.4 mph - N/A   Mostly Cloudy
9:50 AM 28.4 °F 19.7 °F 23.0 °F 80% 30.42 in 6.2 mi NNE 9.2 mph - N/A   Mostly Cloudy
10:09 AM 28.4 °F 17.5 °F 21.2 °F 74% 30.42 in 6.2 mi North 13.8 mph - N/A   Mostly Cloudy
10:50 AM 26.6 °F 16.2 °F 21.2 °F 80% 30.42 in 6.2 mi North 11.5 mph - N/A   Mostly Cloudy
11:20 AM 26.6 °F 16.2 °F 23.0 °F 86% 30.42 in 6.2 mi NNE 11.5 mph - N/A   Mostly Cloudy
11:50 AM 26.6 °F 16.2 °F 21.2 °F 80% 30.42 in 6.2 mi NNE 11.5 mph - N/A   Mostly Cloudy
12:20 PM 26.6 °F 15.2 °F 21.2 °F 80% 30.42 in 6.2 mi NNE 13.8 mph - N/A   Mostly Cloudy
12:50 PM 26.6 °F 16.8 °F 21.2 °F 80% 30.42 in 6.2 mi NNE 10.4 mph - N/A   Mostly Cloudy
1:20 PM 26.6 °F 16.2 °F 21.2 °F 80% 30.42 in 6.2 mi NNE 11.5 mph - N/A   Mostly Cloudy
1:50 PM 26.6 °F 16.2 °F 21.2 °F 80% 30.42 in 6.2 mi NNE 11.5 mph - N/A   Mostly Cloudy
2:20 PM 26.6 °F 16.8 °F 21.2 °F 80% 30.42 in 6.2 mi NNE 10.4 mph - N/A   Mostly Cloudy
2:31 PM 26.6 °F 15.7 °F 21.2 °F 80% 30.42 in 6.2 mi North 12.7 mph - N/A   Mostly Cloudy
2:50 PM 24.8 °F 13.4 °F 21.2 °F 86% 30.42 in 6.2 mi North 12.7 mph - N/A   Mostly Cloudy
3:20 PM 24.8 °F 13.4 °F 21.2 °F 86% 30.42 in 6.2 mi NNE 12.7 mph - N/A   Mostly Cloudy
3:50 PM 24.8 °F 15.3 °F 21.2 °F 86% 30.42 in 6.2 mi NNE 9.2 mph - N/A   Mostly Cloudy
4:20 PM 26.6 °F 18.2 °F 23.0 °F 86% 30.42 in 6.2 mi NNE 8.1 mph - N/A   Mostly Cloudy
4:50 PM 26.6 °F 17.5 °F 23.0 °F 86% 30.42 in 6.2 mi North 9.2 mph - N/A   Mostly Cloudy
5:20 PM 26.6 °F 16.8 °F 21.2 °F 80% 30.42 in 6.2 mi North 10.4 mph - N/A   Mostly Cloudy
5:31 PM 26.6 °F 17.5 °F 23.0 °F 86% 30.42 in 6.2 mi North 9.2 mph - N/A   Mostly Cloudy
5:50 PM 26.6 °F 17.5 °F 23.0 °F 86% 30.42 in 6.2 mi North 9.2 mph - N/A   Mostly Cloudy
6:20 PM 24.8 °F 16.9 °F 21.2 °F 86% 30.42 in 6.2 mi North 6.9 mph - N/A   Scattered Clouds
6:50 PM 24.8 °F 17.9 °F 21.2 °F 86% 30.42 in 6.2 mi North 5.8 mph - N/A   Partly Cloudy
7:20 PM 23.0 °F - 21.2 °F 93% 30.42 in 6.2 mi North 1.2 mph - N/A   Partly Cloudy
7:50 PM 24.8 °F 20.5 °F 23.0 °F 93% 30.42 in 6.2 mi North 3.5 mph - N/A   Scattered Clouds
8:20 PM 24.8 °F 19.1 °F 23.0 °F 93% 30.42 in 6.2 mi North 4.6 mph - N/A   Scattered Clouds
8:50 PM 23.0 °F 17.0 °F 21.2 °F 93% 30.42 in 6.2 mi North 4.6 mph - N/A   Scattered Clouds
9:20 PM 24.8 °F 20.5 °F 23.0 °F 93% 30.42 in 6.2 mi North 3.5 mph - N/A   Scattered Clouds
9:50 PM 24.8 °F 17.9 °F 23.0 °F 93% 30.42 in 6.2 mi North 5.8 mph - N/A   Mostly Cloudy
10:20 PM 26.6 °F 19.1 °F 23.0 °F 86% 30.42 in 6.2 mi North 6.9 mph - N/A   Mostly Cloudy
10:50 PM 26.6 °F 19.1 °F 23.0 °F 86% 30.39 in 6.2 mi North 6.9 mph - N/A   Mostly Cloudy
11:20 PM 26.6 °F 22.6 °F 21.2 °F 80% 30.42 in 6.2 mi NNE 3.5 mph - N/A   Mostly Cloudy
11:50 PM 26.6 °F 22.6 °F 21.2 °F 80% 30.42 in 6.2 mi NNE 3.5 mph - N/A   Scattered Clouds